www.pogodaiklimat.ru

Погода и климат >> Архив погоды >> Индонезия >> Посо


ПОГОДА в Посо

  • Прогноз погоды в Посо
  • Монитор погоды в Посо

АРХИВ ПОГОДЫ в Посо

Время (UTC), дата Ветер
(напр.,м/с)
 
Видим.   Явления Облачность Т
(С)
Тd
(С)
f
(%)
Тe
(С)
Тes
(С)
Комфортность P
(гПа)
Po
(гПа)
Тmin
(С)
Tmax
(С)
R
(мм)
R24
(мм)
S
(см)
00 15.09 ЮЗ 2 10 км 3/1 500 м
[Cu hum As trans Ci fib]
+28.4 +20.2 61 +35 +40 очень
душно
1012.6 1011.7 +25.0
03 15.09 ЮЗ 5 10 км 3/1 500 м
[Cu hum As trans Ci fib]
+32.0 +20.7 51 +39 +49 очень
душно
1010.9 1010.0
06 15.09 С 5 9000 м 3/1 540 м
[Cu med, cong As op Ci fib]
+31.6 +21.9 56 +40 +48 очень
душно
1008.8 1008.0
09 15.09 СВ 3 9000 м 3/1 540 м
[Cu med, cong As op Ci fib]
+29.8 +22.4 65 +39 +40 очень
душно
1009.0 1008.1
12 15.09 штиль 0 9000 м 5/3 500 м
[Cu med, cong As op Ci fib]
+25.8 +23.4 87 +35 +35 очень
душно
1011.7 1010.9 +33.2
15 15.09 штиль 0 9000 м 5/3 500 м
[Cu med, cong As op Ci fib]
+26.4 +24.3 88 +37 +37 очень
душно
1012.5 1011.6
21 15.09 Ю 4 10 км 5/3 500 м
[Cu med, cong As op Ci fib]
+24.0 +20.3 80 +30 +30 очень
душно
1011.6 1010.7
00 16.09 ЮЗ 4 8000 м дым 1/1 500 м
[Cu med, cong Ci fib]
+28.4 +19.5 59 +34 +38 очень
душно
1012.3 1011.4 +24.0
03 16.09 Ю 3 8000 м дым 3/3 500 м
[Cu med, cong Ac lent Ci fib]
+33.0 +20.5 48 +40 +52 опасность
солнечного
удара
1010.8 1009.9
06 16.09 С 6 8000 м дым 3/3 500 м
[Cu med, cong As trans Ci fib]
+31.8 +22.1 57 +41 +46 опасность
перегрева
1008.5 1007.6
09 16.09 СВ 3 8000 м дым 3/3 500 м
[Cu med, cong As trans Ci fib]
+29.6 +22.9 67 +39 +40 очень
душно
1008.8 1007.9
12 16.09 штиль 0 9000 м 5/3 500 м
[Cu med, cong As op Ci fib]
+26.6 +23.6 84 +36 +36 очень
душно
1010.9 1010.1 +31.8
15 16.09 штиль 0 9000 м 5/3 500 м
[Cu med, cong As op Ci fib]
+24.4 +22.8 91 +32 +32 очень
душно
1011.8 1010.9
18 16.09 штиль 0 9000 м 5/3 500 м
[Cu med, cong As op Ci fib]
+25.6 +21.0 76 +32 +32 очень
душно
1010.8 1009.9
21 16.09 штиль 0 9000 м 5/3 500 м
[Cu med, cong As op Ci fib]
+23.2 +21.6 91 +31 +31 очень
душно
1010.9 1010.0
00 17.09 З 4 10 км 3/1 500 м
[Cu med, cong As op Ci fib]
+29.0 +20.9 62 +36 +39 очень
душно
1012.3 1011.5 +23.2
03 17.09 Ю 3 10 км 3/1 500 м
[Cu med, cong As op Ci fib]
+33.8 +21.1 48 +41 +55 опасность
перегрева
1010.8 1009.9
06 17.09 СВ 5 8000 м дым 4/3 500 м
[Cu med, cong As trans Ci fib]
+31.6 +23.8 63 +43 +49 опасность
перегрева
1009.0 1008.1
09 17.09 СВ 3 8000 м дым 6/3 500 м
[Cu med, cong As op Ci fib]
+30.0 +23.6 69 +41 +42 опасность
перегрева
1009.6 1008.7
12 17.09 штиль 0 8000 м 6/3 500 м
[Cu med, cong As op Ci fib]
+27.0 +24.0 84 +37 +37 очень
душно
1012.0 1011.1 +33.0
15 17.09 штиль 0 8000 м 6/3 500 м
[Cu med, cong As op Ci fib]
+26.2 +23.5 85 +36 +36 очень
душно
1012.3 1011.4
18 17.09 штиль 0 9000 м 6/3 500 м
[Cu med, cong As op Ci fib]
+26.4 +21.9 76 +34 +34 очень
душно
1011.3 1010.4
21 17.09 ЮЗ 1 9000 м 6/3 500 м
[Cu med, cong As op Ci fib]
+23.6 +21.7 89 +30 +30 очень
душно
1012.2 1011.3
00 18.09 Ю 3 9000 м 3/1 540 м
[Cu hum As op Ci fib]
+29.6 +21.2 61 +37 +42 очень
душно
1013.2 1012.4 +23.0
03 18.09 СВ 2 9000 м 3/1 540 м
[Cu hum As op Ci fib]
+32.0 +23.3 60 +43 +59 опасность
перегрева
1011.3 1010.5
06 18.09 С 8 10 км 3/1 540 м
[Cu med, cong As op Ci fib]
+32.4 +23.8 61 +44 +47 опасность
перегрева
1009.5 1008.6
09 18.09 С 3 9000 м 8/3 480 м
[Cu med, cong As op Ci fib]
+29.0 +24.7 78 +41 +42 опасность
перегрева
1010.7 1009.8
12 18.09 штиль 0 8000 м {дождь} 8/3 480 м
[Cu med, cong As op Ci fib]
+26.6 +19.8 66 +32 +32 очень
душно
1012.4 1011.5 +32.6 0.0
15 18.09 Ю 3 8000 м 5/3 500 м
[Cu med, cong As trans Ci fib]
+26.6 +21.1 72 +34 +34 очень
душно
1012.4 1011.6
18 18.09 З 2 8000 м 5/3 500 м
[Cu med, cong As trans Ci fib]
+25.6 +21.0 76 +32 +32 очень
душно
1011.4 1010.5
21 18.09 штиль 0 8000 м 5/3 500 м
[Cu med, cong As op Ci fib]
+24.8 +20.5 77 +31 +31 очень
душно
1012.3 1011.4
00 19.09 ЮЗ 2 9000 м 3/1 540 м
[Cu med, cong As op Ci fib]
+29.0 +20.5 60 +36 +40 очень
душно
1013.7 1012.8 +23.2
03 19.09 СВ 5 9000 м 3/1 540 м
[Cu med, cong As op Ci fib]
+32.8 +21.6 52 +41 +50 опасность
перегрева
1011.7 1010.9
06 19.09 С 5 9000 м 3/1 540 м
[Cu hum As op Ci fib]
+31.8 +21.8 55 +40 +48 очень
душно
1009.8 1008.9
09 19.09 СВ 3 9000 м 4/3 540 м
[Cu med, cong As op Ci fib]
+29.6 +23.5 70 +40 +41 очень
душно
1010.3 1009.4
12 19.09 штиль 0 9000 м 6/4 540 м
[Cu med, cong As op Ci fib]
+26.4 +24.6 90 +37 +37 очень
душно
1011.9 1011.0 +33.0
18 19.09 штиль 0 8000 м 6/3 500 м
[Cu med, cong As op Ci fib]
+24.0 +22.4 91 +31 +31 очень
душно
1011.5 1010.7
21 19.09 штиль 0 8000 м 6/3 500 м
[Cu med, cong As op Ci fib]
+23.0 +21.7 92 +31 +31 очень
душно
1011.5 1010.6
00 20.09 штиль 0 9000 м 6/3 500 м
[Cu med, cong As op Ci fib]
+26.0 +21.8 78 +33 +38 очень
душно
1012.7 1011.8 +22.0
03 20.09 С 4 10 км 4/1 500 м
[Cu med, cong As op Ci fib]
+32.6 +23.4 58 +43 +55 опасность
перегрева
1010.8 1009.9
06 20.09 С 5 10 км 4/1 500 м
[Cu med, cong As op Ci fib]
+32.0 +24.3 64 +44 +51 опасность
перегрева
1008.9 1008.0
09 20.09 С 3 10 км 5/3 480 м
[Cu med, cong As op Ci fib]
+30.2 +24.4 71 +42 +43 опасность
перегрева
1009.5 1008.6
12 20.09 штиль 0 9000 м 5/3 500 м
[Cu med, cong As op Ci fib]
+26.4 +24.6 90 +37 +37 очень
душно
1011.0 1010.1 +33.0
15 20.09 штиль 0 9000 м 5/3 500 м
[Cu med, cong As op Ci fib]
+24.6 +22.4 88 +32 +32 очень
душно
1012.2 1011.3
21 20.09 штиль 0 10 км 5/3 500 м
[Cu med, cong As op Ci fib]
+22.6 +21.3 92 +30 +30 очень
душно
1011.9 1011.0
00 21.09 штиль 0 10 км 6/3 500 м
[Cu med, cong Ac trans Ci fib]
+25.6 +22.0 81 +33 +37 очень
душно
1013.0 1012.1 +22.2
03 21.09 С 4 10 км 4/3 500 м
[Cu med, cong Ac lent Ci fib]
+33.6 +23.9 57 +45 +54 опасность
перегрева
1010.6 1009.8
06 21.09 СВ 4 9000 м 4/3 500 м
[Cu med, cong As op Ci fib]
+32.8 +23.9 60 +45 +53 опасность
перегрева
1008.7 1007.8
09 21.09 С 2 8000 м 9/4 500 м
[Cu med, cong As op Ci fib]
+30.0 +24.2 71 +42 +42 опасность
перегрева
1009.9 1009.0
12 21.09 штиль 0 8000 м 5/3 500 м
[Cu med, cong As op Ci fib]
+27.0 +24.6 87 +38 +38 очень
душно
1011.6 1010.7 +33.2
15 21.09 штиль 0 8000 м 5/3 500 м
[Cu med, cong As op Ci fib]
+25.0 +23.7 93 +34 +34 очень
душно
1012.5 1011.6
18 21.09 ЮЗ 1 9000 м 5/3 500 м
[Cu med, cong As op Ci fib]
+23.0 +22.0 94 +31 +31 очень
душно
1011.5 1010.7
21 21.09 штиль 0 9000 м 5/3 500 м
[Cu med, cong As op Ci fib]
+22.0 +21.3 96 +29 +29 очень
душно
1012.4 1011.5

 

Местоположение метеостанции Посо (Индонезия): широта -1.38 долгота 120.73 высота над уровнем моря 2 м.

В архиве по умолчанию представлена погода в Посо за последнюю неделю. Архивные данные за месяц целиком и за предыдущие месяцы, начиная с января 2011 года, Вы можете получить, выбрав интересующий диапазон дат из раскрывающегося списка и нажав кнопку "Ввод!".


*Определитесь, кто Вы:
робот инопланетянин человек

Внимание! Время в таблицах - всемирное. Для получения местного времени необходимо прибавить поправку, которая равна 8 ч.

Смотрите также архив погоды в соседних городах и на ближайших метеорологических станциях:

Погода в Палу (Индонезия) (136 км)
Погода в Масамбе (Индонезия) (136 км)
Погода в Маджене (Индонезия) (229 км)
Погода в Лувуке (Индонезия) (234 км)
Погода в Толи-Толи (Индонезия) (267 км)
Погода в Горонтало (Индонезия) (334 км)
Погода в Колаке (Индонезия) (337 км)
Погода в Кендари (Индонезия) (357 км)
Погода в Самаринде (Индонезия) (407 км)
Погода в Баликпапане (Индонезия) (426 км)

Пояснения к столбцам:

Ветер - указаны скорость ветра в м/с - средняя за 10 мин, порывы в срок и между сроками (в фигурных скобках) и направление, откуда дует ветер: С - северный, СВ - северо-восточный, В - восточный, ЮВ - юго-восточный, Ю - южный, ЮЗ - юго-западный, З - западный, СЗ - северо-западный.
Видимость - горизонтальная дальность видимости в метрах или километрах. При видимости от 1 до 10 км при отсутствии осадков обычно наблюдается дымка, при ухудшении видимости до 1 км и менее - туман. В сухую погоду видимость может ухудшаться дымом, пылью или мглою.
Явления - указаны атмосферные явления, наблюдавшиеся в срок или в последний час перед сроком; фигурными скобками обозначены явления, наблюдавшиеся между сроками (за 1-3 часа до срока); квадратными скобками обозначены град или гололедные отложения с указанием их диаметра в мм.
Облачность - указаны через наклонную черту общая и нижняя облачность в баллах и высота нижней границы облаков в метрах; квадратными скобками обозначены формы облаков: Ci - перистые, Cs - перисто-слоистые, Cc - перисто-кучевые, Ac - высококучевые, As - высокослоистые, Sc - слоисто-кучевые, Ns - слоисто-дождевые, Cu - кучевые, Cb - кучево-дождевые. Подробнее классификацию облаков см. в Атласе облаков (PDF).
T - Температура воздуха - температура, измеренная на высоте 2 м над землей.
Td - Температура точки росы - температура, при понижении до которой содержащийся в воздухе водяной пар достигнет насыщения.
f - Относительная влажность воздуха - влажноcть воздуха, измеренная на высоте 2 м над землей.
Te - Эффективная температура - температура, которую ощущает одетый по сезону человек в тени. Характеристика душности погоды. При расчете учитывается влияние влажности воздуха и скорости ветра на теплоощущения человека.
Tes - Эффективная температура на солнце - температура, которую ощущает человек, с поправкой на солнечный нагрев. Характеристика знойности погоды. Зависит от высоты солнца над горизонтом, облачности и скорости ветра. Ночью, в пасмурную погоду, а также при ветре 12 м/с и более поправка равна нулю.
P - Атмосферное давление - приведенное к уровню моря атмосферное давление.
Po - Атмосферное давление - измеренное на уровне метеостанции атмосферное давление.
Tmin - Минимальная температура - минимум температуры воздуха на высоте 2 м над землей.
Tmax - Максимальная температура - максимум температуры воздуха на высоте 2 м над землей.
R - Количество осадков - Количество выпавших осадков за период времени, мм. При наведении курсора мыши на число - период времени, за который выпало указанное количество осадков.
R24 - Количество осадков - Количество выпавших осадков за 24 часа, мм.
S - Снежный покров - Высота снежного покрова, см. При наведении курсора мыши на число - состояние снежного покрова и степень покрытия местности в баллах.